Time,TemperatureF,DewpointF,PressureIn,WindDirection,WindDirectionDegrees,WindSpeedMPH,WindSpeedGustMPH,Humidity,HourlyPrecipIn,Conditions,Clouds,dailyrainin,SoftwareType,DateUTC
2013-10-05 00:01:00,53.3,39.8,29.85,WSW,250,5.8,5.8,60,0.00,RA,SKC,0.00,WeatherDisplay:10.37,2013-10-05 05:01:00,
2013-10-05 00:06:00,52.9,39.8,29.86,NW,323,5.8,5.8,61,0.00,RA,SKC,0.00,WeatherDisplay:10.37,2013-10-05 05:06:00,
2013-10-05 00:11:00,52.8,39.3,29.87,SW,217,8.5,8.5,60,0.00,,SKC,0.00,WeatherDisplay:10.37,2013-10-05 05:11:00,
2013-10-05 00:16:00,52.5,37.7,29.87,WNW,297,13.8,13.8,57,0.00,,SKC,0.00,WeatherDisplay:10.37,2013-10-05 05:16:00,
2013-10-05 00:21:00,52.2,37.9,29.87,WNW,303,7.4,7.4,58,0.00,,SKC,0.00,WeatherDisplay:10.37,2013-10-05 05:21:00,
2013-10-05 00:26:00,52.1,38.2,29.85,WSW,240,9.5,9.5,59,0.00,,SKC,0.00,WeatherDisplay:10.37,2013-10-05 05:26:00,
2013-10-05 00:31:00,51.9,38.4,29.85,WNW,283,9.5,9.5,60,0.00,,SKC,0.00,WeatherDisplay:10.37,2013-10-05 05:31:00,
2013-10-05 00:36:00,51.7,38.7,29.86,WSW,248,6.9,6.9,61,0.00,,SKC,0.00,WeatherDisplay:10.37,2013-10-05 05:36:00,
2013-10-05 00:41:00,51.6,38.2,29.86,NW,304,13.8,13.8,60,0.00,,SKC,0.00,WeatherDisplay:10.37,2013-10-05 05:41:00,
2013-10-05 00:46:00,51.3,38.3,29.85,NW,321,11.5,11.5,61,0.00,,SKC,0.00,WeatherDisplay:10.37,2013-10-05 05:46:00,
2013-10-05 00:51:00,51.1,38.5,29.85,WNW,294,6.9,6.9,62,0.00,,SKC,0.00,WeatherDisplay:10.37,2013-10-05 05:51:00,
2013-10-05 00:56:00,50.9,37.9,29.85,West,277,11.7,11.7,61,0.00,,SKC,0.00,WeatherDisplay:10.37,2013-10-05 05:56:00,
2013-10-05 01:01:00,50.5,37.5,29.87,WSW,243,9.2,9.2,61,0.00,,SKC,0.00,WeatherDisplay:10.37,2013-10-05 06:01:00,
2013-10-05 01:06:00,50.2,37.3,29.87,West,269,8.5,8.5,61,0.00,,SKC,0.00,WeatherDisplay:10.37,2013-10-05 06:06:00,
2013-10-05 01:11:00,49.8,36.9,29.87,WNW,292,9.2,9.2,61,0.00,,SKC,0.00,WeatherDisplay:10.37,2013-10-05 06:11:00,
2013-10-05 01:16:00,49.4,36.5,29.86,WNW,288,10.6,10.6,61,0.00,,SKC,0.00,WeatherDisplay:10.37,2013-10-05 06:16:00,
2013-10-05 01:21:00,49.1,36.2,29.87,NW,312,12.7,12.7,61,0.00,,SKC,0.00,WeatherDisplay:10.37,2013-10-05 06:21:00,
2013-10-05 01:27:00,48.7,35.8,29.87,WNW,297,15.0,15.0,61,0.00,,SKC,0.00,WeatherDisplay:10.37,2013-10-05 06:27:00,
2013-10-05 01:32:00,48.4,35.6,29.88,NW,318,10.6,10.6,61,0.00,,SKC,0.00,WeatherDisplay:10.37,2013-10-05 06:32:00,
2013-10-05 01:37:00,48.4,36.0,29.89,ESE,120,4.6,4.6,62,0.00,,SKC,0.00,WeatherDisplay:10.37,2013-10-05 06:37:00,
2013-10-05 01:42:00,48.4,36.0,29.90,NNW,331,6.9,6.9,62,0.00,,SKC,0.00,WeatherDisplay:10.37,2013-10-05 06:42:00,
2013-10-05 01:47:00,48.3,36.3,29.90,West,263,7.4,7.4,63,0.00,,SKC,0.00,WeatherDisplay:10.37,2013-10-05 06:47:00,
2013-10-05 01:52:00,48.3,36.3,29.89,NW,309,8.5,8.5,63,0.00,,SKC,0.00,WeatherDisplay:10.37,2013-10-05 06:52:00,
2013-10-05 01:57:00,48.2,36.6,29.89,NW,322,6.9,6.9,64,0.00,,SKC,0.00,WeatherDisplay:10.37,2013-10-05 06:57:00,
2013-10-05 02:02:00,48.1,36.1,29.90,NW,320,7.4,7.4,63,0.00,,SKC,0.00,WeatherDisplay:10.37,2013-10-05 07:02:00,
2013-10-05 02:07:00,48.1,36.1,29.90,NW,324,13.8,13.8,63,0.00,,SKC,0.00,WeatherDisplay:10.37,2013-10-05 07:07:00,
2013-10-05 02:12:00,48.0,36.0,29.90,WSW,255,11.7,11.7,63,0.00,,SKC,0.00,WeatherDisplay:10.37,2013-10-05 07:12:00,
2013-10-05 02:17:00,47.8,35.0,29.90,NW,304,11.7,11.7,61,0.00,,SKC,0.00,WeatherDisplay:10.37,2013-10-05 07:17:00,
2013-10-05 02:22:00,47.6,35.2,29.90,NW,307,12.7,12.7,62,0.00,,SKC,0.00,WeatherDisplay:10.37,2013-10-05 07:22:00,
2013-10-05 02:27:00,47.4,35.4,29.89,SW,222,11.5,11.5,63,0.00,,SKC,0.00,WeatherDisplay:10.37,2013-10-05 07:27:00,
2013-10-05 02:32:00,47.3,35.3,29.91,SW,230,8.5,8.5,63,0.00,,SKC,0.00,WeatherDisplay:10.37,2013-10-05 07:32:00,
2013-10-05 02:37:00,47.3,35.7,29.90,WNW,283,6.9,6.9,64,0.00,,SKC,0.00,WeatherDisplay:10.37,2013-10-05 07:37:00,
2013-10-05 02:42:00,47.3,35.7,29.90,West,269,7.4,7.4,64,0.00,,SKC,0.00,WeatherDisplay:10.37,2013-10-05 07:42:00,
2013-10-05 02:47:00,47.2,35.6,29.90,WNW,290,9.5,9.5,64,0.00,,SKC,0.00,WeatherDisplay:10.37,2013-10-05 07:47:00,
2013-10-05 02:52:00,47.2,35.6,29.88,WSW,257,12.7,12.7,64,0.00,,SKC,0.00,WeatherDisplay:10.37,2013-10-05 07:52:00,
2013-10-05 02:57:00,47.0,35.4,29.88,West,260,10.6,10.6,64,0.00,,SKC,0.00,WeatherDisplay:10.37,2013-10-05 07:57:00,
2013-10-05 03:02:00,46.7,35.6,29.90,SW,225,7.4,7.4,65,0.00,,SKC,0.00,WeatherDisplay:10.37,2013-10-05 08:02:00,
2013-10-05 03:07:00,46.6,35.5,29.89,WNW,297,7.4,7.4,65,0.00,,SKC,0.00,WeatherDisplay:10.37,2013-10-05 08:07:00,
2013-10-05 03:12:00,46.3,35.6,29.89,WNW,292,4.6,4.6,66,0.00,,SKC,0.00,WeatherDisplay:10.37,2013-10-05 08:12:00,
2013-10-05 03:17:00,46.1,35.4,29.88,WNW,295,6.9,6.9,66,0.00,,SKC,0.00,WeatherDisplay:10.37,2013-10-05 08:17:00,
2013-10-05 03:22:00,46.0,34.9,29.88,West,276,9.5,9.5,65,0.00,,SKC,0.00,WeatherDisplay:10.37,2013-10-05 08:22:00,
2013-10-05 03:27:00,45.7,35.0,29.88,NW,312,5.8,5.8,66,0.00,,SKC,0.00,WeatherDisplay:10.37,2013-10-05 08:27:00,
2013-10-05 03:32:00,45.5,35.2,29.88,WNW,283,4.6,4.6,67,0.00,,SKC,0.00,WeatherDisplay:10.37,2013-10-05 08:32:00,
2013-10-05 03:37:00,45.3,35.4,29.88,WSW,255,8.1,8.1,68,0.00,,SKC,0.00,WeatherDisplay:10.37,2013-10-05 08:37:00,
2013-10-05 03:42:00,45.1,35.2,29.88,NW,313,3.5,3.5,68,0.00,,SKC,0.00,WeatherDisplay:10.37,2013-10-05 08:42:00,
2013-10-05 03:47:00,44.9,35.3,29.88,West,278,5.8,5.8,69,0.00,,SKC,0.00,WeatherDisplay:10.37,2013-10-05 08:47:00,
2013-10-05 03:52:00,44.7,35.1,29.88,WSW,253,4.2,4.2,69,0.00,,SKC,0.00,WeatherDisplay:10.37,2013-10-05 08:52:00,
2013-10-05 03:57:00,44.6,35.1,29.88,West,276,5.8,5.8,69,0.00,,SKC,0.00,WeatherDisplay:10.37,2013-10-05 08:57:00,
2013-10-05 04:02:00,44.4,34.9,29.88,West,259,3.5,3.5,69,0.00,,SKC,0.00,WeatherDisplay:10.37,2013-10-05 09:02:00,
2013-10-05 04:07:00,44.3,34.8,29.89,WSW,245,8.5,8.5,69,0.00,,SKC,0.00,WeatherDisplay:10.37,2013-10-05 09:07:00,
2013-10-05 04:12:00,44.3,34.8,29.89,WSW,238,5.8,5.8,69,0.00,,SKC,0.00,WeatherDisplay:10.37,2013-10-05 09:12:00,
2013-10-05 04:17:00,44.2,35.0,29.88,West,278,4.2,4.2,70,0.00,,SKC,0.00,WeatherDisplay:10.37,2013-10-05 09:17:00,
2013-10-05 04:22:00,44.1,34.6,29.87,WNW,303,5.8,5.8,69,0.00,,SKC,0.00,WeatherDisplay:10.37,2013-10-05 09:22:00,
2013-10-05 04:27:00,43.9,34.7,29.88,NW,304,4.6,4.6,70,0.00,,SKC,0.00,WeatherDisplay:10.37,2013-10-05 09:27:00,
2013-10-05 04:32:00,43.7,34.9,29.88,West,275,3.5,3.5,71,0.00,,SKC,0.00,WeatherDisplay:10.37,2013-10-05 09:32:00,
2013-10-05 04:37:00,43.6,34.8,29.88,SSW,203,1.2,1.2,71,0.00,,SKC,0.00,WeatherDisplay:10.37,2013-10-05 09:37:00,
2013-10-05 04:42:00,43.5,34.7,29.88,SW,233,2.3,2.3,71,0.00,,SKC,0.00,WeatherDisplay:10.37,2013-10-05 09:42:00,
2013-10-05 04:47:00,43.3,34.5,29.88,SW,214,2.1,2.1,71,0.00,,SKC,0.00,WeatherDisplay:10.37,2013-10-05 09:47:00,
2013-10-05 04:52:00,43.2,34.4,29.89,SSW,213,3.5,3.5,71,0.00,,SKC,0.00,WeatherDisplay:10.37,2013-10-05 09:52:00,
2013-10-05 04:57:00,43.1,34.7,29.89,SW,234,5.3,5.3,72,0.00,,SKC,0.00,WeatherDisplay:10.37,2013-10-05 09:57:00,
2013-10-05 05:02:00,43.1,34.7,29.89,WSW,251,3.2,3.2,72,0.00,,SKC,0.00,WeatherDisplay:10.37,2013-10-05 10:02:00,
2013-10-05 05:07:00,43.1,34.7,29.89,SW,224,6.4,6.4,72,0.00,,SKC,0.00,WeatherDisplay:10.37,2013-10-05 10:07:00,
2013-10-05 05:12:00,43.1,34.7,29.89,West,267,4.6,4.6,72,0.00,,SKC,0.00,WeatherDisplay:10.37,2013-10-05 10:12:00,
2013-10-05 05:17:00,43.0,34.6,29.89,WSW,251,1.2,1.2,72,0.00,,SKC,0.00,WeatherDisplay:10.37,2013-10-05 10:17:00,
2013-10-05 05:22:00,43.0,34.6,29.88,WSW,248,6.9,6.9,72,0.00,,SKC,0.00,WeatherDisplay:10.37,2013-10-05 10:22:00,
2013-10-05 05:27:00,42.9,34.5,29.88,SW,235,3.5,3.5,72,0.00,,SKC,0.00,WeatherDisplay:10.37,2013-10-05 10:27:00,
2013-10-05 05:32:00,43.0,34.6,29.88,NW,310,3.5,3.5,72,0.00,,SKC,0.00,WeatherDisplay:10.37,2013-10-05 10:32:00,
2013-10-05 05:37:00,43.1,34.7,29.88,West,264,3.2,3.2,72,0.00,,SKC,0.00,WeatherDisplay:10.37,2013-10-05 10:37:00,
2013-10-05 05:42:00,43.2,34.8,29.88,SE,127,4.6,4.6,72,0.00,,SKC,0.00,WeatherDisplay:10.37,2013-10-05 10:42:00,
2013-10-05 05:47:00,43.3,34.5,29.88,West,279,6.9,6.9,71,0.00,,SKC,0.00,WeatherDisplay:10.37,2013-10-05 10:47:00,
2013-10-05 05:52:00,43.4,34.3,29.88,NNW,333,4.6,4.6,70,0.00,,SKC,0.00,WeatherDisplay:10.37,2013-10-05 10:52:00,
2013-10-05 05:57:00,43.8,34.6,29.88,South,172,8.1,8.1,70,0.00,,SKC,0.00,WeatherDisplay:10.37,2013-10-05 10:57:00,
2013-10-05 06:02:00,43.9,34.4,29.88,WSW,252,8.5,8.5,69,0.00,,SKC,0.00,WeatherDisplay:10.37,2013-10-05 11:02:00,
2013-10-05 06:07:00,44.0,34.1,29.88,SW,224,2.3,2.3,68,0.00,,SKC,0.00,WeatherDisplay:10.37,2013-10-05 11:07:00,
2013-10-05 06:12:00,44.3,34.0,29.88,WSW,258,5.8,5.8,67,0.00,,SKC,0.00,WeatherDisplay:10.37,2013-10-05 11:12:00,
2013-10-05 06:17:00,44.5,34.2,29.88,West,281,6.9,6.9,67,0.00,,SKC,0.00,WeatherDisplay:10.37,2013-10-05 11:17:00,
2013-10-05 06:22:00,44.8,34.5,29.89,NW,306,7.4,7.4,67,0.00,,SKC,0.00,WeatherDisplay:10.37,2013-10-05 11:22:00,
2013-10-05 06:27:00,45.0,34.3,29.88,NNE,24,3.5,3.5,66,0.00,,SKC,0.00,WeatherDisplay:10.37,2013-10-05 11:27:00,
2013-10-05 06:33:00,45.0,34.3,29.89,WNW,294,4.6,4.6,66,0.00,,SKC,0.00,WeatherDisplay:10.37,2013-10-05 11:33:00,
2013-10-05 06:38:00,45.1,34.4,29.89,WNW,300,6.9,6.9,66,0.00,,SKC,0.00,WeatherDisplay:10.37,2013-10-05 11:38:00,
2013-10-05 06:43:00,45.1,34.4,29.90,South,169,5.8,5.8,66,0.00,,SKC,0.00,WeatherDisplay:10.37,2013-10-05 11:43:00,
2013-10-05 06:48:00,45.0,34.3,29.90,West,266,9.5,9.5,66,0.00,,SKC,0.00,WeatherDisplay:10.37,2013-10-05 11:48:00,
2013-10-05 06:53:00,44.9,34.2,29.89,ESE,122,6.4,6.4,66,0.00,,SKC,0.00,WeatherDisplay:10.37,2013-10-05 11:53:00,
2013-10-05 06:58:00,44.8,34.1,29.90,NNW,327,6.9,6.9,66,0.00,,SKC,0.00,WeatherDisplay:10.37,2013-10-05 11:58:00,
2013-10-05 07:03:00,44.7,34.0,29.90,SSW,207,7.4,7.4,66,0.00,,SKC,0.00,WeatherDisplay:10.37,2013-10-05 12:03:00,
2013-10-05 07:08:00,44.7,34.4,29.89,SSW,212,4.6,4.6,67,0.00,,SKC,0.00,WeatherDisplay:10.37,2013-10-05 12:08:00,
2013-10-05 07:13:00,44.6,34.3,29.89,WSW,252,5.8,5.8,67,0.00,,SKC,0.00,WeatherDisplay:10.37,2013-10-05 12:13:00,
2013-10-05 07:18:00,44.6,34.3,29.89,NE,35,6.9,6.9,67,0.00,,SKC,0.00,WeatherDisplay:10.37,2013-10-05 12:18:00,
2013-10-05 07:23:00,44.6,34.3,29.89,WNW,285,8.5,8.5,67,0.00,,SKC,0.00,WeatherDisplay:10.37,2013-10-05 12:23:00,
2013-10-05 07:28:00,44.7,34.4,29.89,ESE,109,6.9,6.9,67,0.00,,SKC,0.00,WeatherDisplay:10.37,2013-10-05 12:28:00,
2013-10-05 07:33:00,44.7,34.4,29.88,WNW,283,6.9,6.9,67,0.00,,SKC,0.00,WeatherDisplay:10.37,2013-10-05 12:33:00,
2013-10-05 07:38:00,44.6,34.3,29.88,NW,307,9.5,9.5,67,0.00,,SKC,0.00,WeatherDisplay:10.37,2013-10-05 12:38:00,
2013-10-05 07:43:00,44.5,34.6,29.88,West,270,9.5,9.5,68,0.00,,SKC,0.00,WeatherDisplay:10.37,2013-10-05 12:43:00,
2013-10-05 07:48:00,44.6,34.7,29.87,SW,235,6.9,6.9,68,0.00,,SKC,0.00,WeatherDisplay:10.37,2013-10-05 12:48:00,
2013-10-05 07:53:00,44.9,34.6,29.87,SSW,195,6.9,6.9,67,0.00,,SKC,0.00,WeatherDisplay:10.37,2013-10-05 12:53:00,
2013-10-05 07:58:00,45.2,34.5,29.87,West,271,6.9,6.9,66,0.00,,SKC,0.00,WeatherDisplay:10.37,2013-10-05 12:58:00,
2013-10-05 08:03:00,45.4,34.7,29.87,WNW,286,7.4,7.4,66,0.00,,SKC,0.00,WeatherDisplay:10.37,2013-10-05 13:03:00,
2013-10-05 08:08:00,45.5,34.8,29.87,SSW,194,8.1,8.1,66,0.00,,SKC,0.00,WeatherDisplay:10.37,2013-10-05 13:08:00,
2013-10-05 08:13:00,45.6,34.9,29.87,WNW,300,12.7,12.7,66,0.00,,SKC,0.00,WeatherDisplay:10.37,2013-10-05 13:13:00,
2013-10-05 08:18:00,46.0,35.3,29.87,WSW,240,4.6,4.6,66,0.00,,SKC,0.00,WeatherDisplay:10.37,2013-10-05 13:18:00,
2013-10-05 08:23:00,46.3,35.2,29.88,SW,214,17.0,17.0,65,0.00,,SKC,0.00,WeatherDisplay:10.37,2013-10-05 13:23:00,
2013-10-05 08:28:00,46.7,35.2,29.87,WNW,295,10.6,10.6,64,0.00,,SKC,0.00,WeatherDisplay:10.37,2013-10-05 13:28:00,
2013-10-05 08:33:00,46.9,35.4,29.88,WNW,297,8.1,8.1,64,0.00,,SKC,0.00,WeatherDisplay:10.37,2013-10-05 13:33:00,
2013-10-05 08:38:00,47.2,35.2,29.88,WSW,238,8.5,8.5,63,0.00,,SKC,0.00,WeatherDisplay:10.37,2013-10-05 13:38:00,
2013-10-05 08:43:00,47.5,35.1,29.89,ESE,114,11.7,11.7,62,0.00,,SKC,0.00,WeatherDisplay:10.37,2013-10-05 13:43:00,
2013-10-05 08:48:00,47.7,34.9,29.88,SW,229,18.4,18.4,61,0.00,,SKC,0.00,WeatherDisplay:10.37,2013-10-05 13:48:00,
2013-10-05 08:53:00,47.3,34.9,29.88,WSW,245,6.9,6.9,62,0.00,,SKC,0.00,WeatherDisplay:10.37,2013-10-05 13:53:00,
2013-10-05 08:58:00,46.9,35.0,29.88,WNW,287,8.5,8.5,63,0.00,,SKC,0.00,WeatherDisplay:10.37,2013-10-05 13:58:00,
2013-10-05 09:03:00,46.7,34.8,29.88,SW,224,18.0,18.0,63,0.00,,SKC,0.00,WeatherDisplay:10.37,2013-10-05 14:03:00,
2013-10-05 09:08:00,46.6,34.7,29.89,WSW,251,11.7,11.7,63,0.00,,SKC,0.00,WeatherDisplay:10.37,2013-10-05 14:08:00,
2013-10-05 09:13:00,46.9,35.0,29.89,WNW,295,8.5,8.5,63,0.00,,SKC,0.00,WeatherDisplay:10.37,2013-10-05 14:13:00,
2013-10-05 09:18:00,47.7,34.5,29.89,West,272,10.6,10.6,60,0.00,,SKC,0.00,WeatherDisplay:10.37,2013-10-05 14:18:00,
2013-10-05 09:23:00,48.0,34.8,29.90,NNE,19,8.5,8.5,60,0.00,,SKC,0.00,WeatherDisplay:10.37,2013-10-05 14:23:00,
2013-10-05 09:28:00,47.7,34.1,29.90,WNW,283,11.7,11.7,59,0.00,,SKC,0.00,WeatherDisplay:10.37,2013-10-05 14:28:00,
2013-10-05 09:33:00,47.6,34.0,29.90,West,271,8.5,8.5,59,0.00,,SKC,0.00,WeatherDisplay:10.37,2013-10-05 14:33:00,
2013-10-05 09:38:00,47.7,34.5,29.90,South,191,10.6,10.6,60,0.00,,SKC,0.00,WeatherDisplay:10.37,2013-10-05 14:38:00,
2013-10-05 09:43:00,47.6,34.0,29.90,WNW,293,8.5,8.5,59,0.00,,SKC,0.00,WeatherDisplay:10.37,2013-10-05 14:43:00,
2013-10-05 09:48:00,47.5,33.4,29.90,SSE,155,11.7,11.7,58,0.00,,SKC,0.00,WeatherDisplay:10.37,2013-10-05 14:48:00,
2013-10-05 09:53:00,47.3,33.7,29.90,West,281,4.6,4.6,59,0.00,,SKC,0.00,WeatherDisplay:10.37,2013-10-05 14:53:00,
2013-10-05 09:58:00,47.4,33.8,29.90,WNW,289,11.5,11.5,59,0.00,,SKC,0.00,WeatherDisplay:10.37,2013-10-05 14:58:00,
2013-10-05 10:03:00,47.5,33.9,29.90,WNW,300,6.9,6.9,59,0.00,,SKC,0.00,WeatherDisplay:10.37,2013-10-05 15:03:00,
2013-10-05 10:08:00,47.7,34.1,29.90,WNW,290,9.5,9.5,59,0.00,,SKC,0.00,WeatherDisplay:10.37,2013-10-05 15:08:00,
2013-10-05 10:13:00,47.9,33.8,29.90,SW,224,9.5,9.5,58,0.00,,SKC,0.00,WeatherDisplay:10.37,2013-10-05 15:13:00,
2013-10-05 10:18:00,48.1,33.6,29.90,NW,326,7.4,7.4,57,0.00,,SKC,0.00,WeatherDisplay:10.37,2013-10-05 15:18:00,
2013-10-05 10:23:00,48.2,33.2,29.90,SW,233,18.4,18.4,56,0.00,,SKC,0.00,WeatherDisplay:10.37,2013-10-05 15:23:00,
2013-10-05 10:29:00,48.4,33.4,29.90,WNW,299,13.8,13.8,56,0.00,,SKC,0.00,WeatherDisplay:10.37,2013-10-05 15:29:00,
2013-10-05 10:34:00,48.6,34.0,29.90,West,259,12.7,12.7,57,0.00,,SKC,0.00,WeatherDisplay:10.37,2013-10-05 15:34:00,
2013-10-05 10:39:00,49.0,33.5,29.90,ENE,73,11.5,11.5,55,0.00,,SKC,0.00,WeatherDisplay:10.37,2013-10-05 15:39:00,
2013-10-05 10:44:00,49.0,34.0,29.90,West,264,5.8,5.8,56,0.00,,SKC,0.00,WeatherDisplay:10.37,2013-10-05 15:44:00,
2013-10-05 10:49:00,49.1,33.6,29.90,SE,141,10.4,10.4,55,0.00,,SKC,0.00,WeatherDisplay:10.37,2013-10-05 15:49:00,
2013-10-05 10:54:00,49.1,33.2,29.91,NW,310,11.7,11.7,54,0.00,,SKC,0.00,WeatherDisplay:10.37,2013-10-05 15:54:00,
2013-10-05 10:59:00,49.1,34.1,29.91,SW,232,9.2,9.2,56,0.00,,SKC,0.00,WeatherDisplay:10.37,2013-10-05 15:59:00,
2013-10-05 11:04:00,49.2,34.2,29.91,SW,231,9.5,9.5,56,0.00,,SKC,0.00,WeatherDisplay:10.37,2013-10-05 16:04:00,
2013-10-05 11:09:00,49.1,33.6,29.91,SW,231,9.2,9.2,55,0.00,,SKC,0.00,WeatherDisplay:10.37,2013-10-05 16:09:00,
2013-10-05 11:14:00,49.0,34.4,29.90,ESE,103,5.8,5.8,57,0.00,,SKC,0.00,WeatherDisplay:10.37,2013-10-05 16:14:00,
2013-10-05 11:19:00,49.7,34.2,29.91,WNW,285,13.8,13.8,55,0.00,,SKC,0.00,WeatherDisplay:10.37,2013-10-05 16:19:00,
2013-10-05 11:24:00,50.1,34.1,29.91,NW,308,10.6,10.6,54,0.00,,SKC,0.00,WeatherDisplay:10.37,2013-10-05 16:24:00,
2013-10-05 11:29:00,50.5,34.0,29.90,SSE,150,18.4,18.4,53,0.00,,SKC,0.00,WeatherDisplay:10.37,2013-10-05 16:29:00,
2013-10-05 11:34:00,50.4,33.9,29.90,WSW,255,19.1,19.1,53,0.00,,SKC,0.00,WeatherDisplay:10.37,2013-10-05 16:34:00,
2013-10-05 11:39:00,49.9,34.4,29.90,NW,314,13.8,13.8,55,0.00,,SKC,0.00,WeatherDisplay:10.37,2013-10-05 16:39:00,
2013-10-05 11:44:00,49.7,34.2,29.90,SW,217,12.7,12.7,55,0.00,,SKC,0.00,WeatherDisplay:10.37,2013-10-05 16:44:00,
2013-10-05 11:49:00,49.7,34.2,29.91,West,268,9.2,9.2,55,0.00,,SKC,0.00,WeatherDisplay:10.37,2013-10-05 16:49:00,
2013-10-05 11:54:00,50.1,35.0,29.90,SSE,155,6.9,6.9,56,0.00,,SKC,0.00,WeatherDisplay:10.37,2013-10-05 16:54:00,
2013-10-05 11:59:00,51.4,35.8,29.90,WSW,247,9.5,9.5,55,0.00,,SKC,0.00,WeatherDisplay:10.37,2013-10-05 16:59:00,
2013-10-05 12:04:00,51.8,35.2,29.89,WSW,242,11.7,11.7,53,0.00,,SKC,0.00,WeatherDisplay:10.37,2013-10-05 17:04:00,
2013-10-05 12:09:00,51.7,34.1,29.90,SW,230,18.4,18.4,51,0.00,,SKC,0.00,WeatherDisplay:10.37,2013-10-05 17:09:00,
2013-10-05 12:14:00,52.1,35.5,29.89,SW,232,13.8,13.8,53,0.00,,SKC,0.00,WeatherDisplay:10.37,2013-10-05 17:14:00,
2013-10-05 12:19:00,52.4,35.3,29.89,WNW,285,9.5,9.5,52,0.00,,SKC,0.00,WeatherDisplay:10.37,2013-10-05 17:19:00,
2013-10-05 12:24:00,53.0,34.3,29.89,WNW,284,11.7,11.7,49,0.00,,SKC,0.00,WeatherDisplay:10.37,2013-10-05 17:24:00,
2013-10-05 12:29:00,53.2,34.0,29.89,South,191,21.2,21.2,48,0.00,,SKC,0.00,WeatherDisplay:10.37,2013-10-05 17:29:00,
2013-10-05 12:34:00,53.3,34.6,29.89,NNE,18,15.0,15.0,49,0.00,,SKC,0.00,WeatherDisplay:10.37,2013-10-05 17:34:00,
2013-10-05 12:39:00,53.2,34.5,29.89,West,274,10.6,10.6,49,0.00,,SKC,0.00,WeatherDisplay:10.37,2013-10-05 17:39:00,
2013-10-05 12:44:00,53.2,35.0,29.89,West,274,16.1,16.1,50,0.00,,SKC,0.00,WeatherDisplay:10.37,2013-10-05 17:44:00,
2013-10-05 12:49:00,53.0,34.3,29.89,WNW,303,9.5,9.5,49,0.00,,SKC,0.00,WeatherDisplay:10.37,2013-10-05 17:49:00,
2013-10-05 12:54:00,52.7,34.6,29.88,WSW,249,10.4,10.4,50,0.00,,SKC,0.00,WeatherDisplay:10.37,2013-10-05 17:54:00,
2013-10-05 12:59:00,52.9,35.2,29.88,South,175,9.2,9.2,51,0.00,,SKC,0.00,WeatherDisplay:10.37,2013-10-05 17:59:00,
2013-10-05 13:04:00,52.8,33.1,29.88,SW,214,23.3,23.3,47,0.00,,SKC,0.00,WeatherDisplay:10.37,2013-10-05 18:04:00,
2013-10-05 13:09:00,52.7,34.1,29.88,ENE,72,17.0,17.0,49,0.00,,SKC,0.00,WeatherDisplay:10.37,2013-10-05 18:09:00,
2013-10-05 13:14:00,52.9,34.2,29.88,East,95,12.7,12.7,49,0.00,,SKC,0.00,WeatherDisplay:10.37,2013-10-05 18:14:00,
2013-10-05 13:19:00,53.3,35.1,29.88,NW,321,11.7,11.7,50,0.00,,SKC,0.00,WeatherDisplay:10.37,2013-10-05 18:19:00,
2013-10-05 13:24:00,53.0,34.8,29.88,SSW,207,7.4,7.4,50,0.00,,SKC,0.00,WeatherDisplay:10.37,2013-10-05 18:24:00,
2013-10-05 13:29:00,53.2,34.5,29.88,West,273,9.2,9.2,49,0.00,,SKC,0.00,WeatherDisplay:10.37,2013-10-05 18:29:00,
2013-10-05 13:34:00,53.4,34.7,29.87,SW,224,12.7,12.7,49,0.00,,SKC,0.00,WeatherDisplay:10.37,2013-10-05 18:34:00,
2013-10-05 13:39:00,53.8,34.6,29.87,ENE,58,15.0,15.0,48,0.00,,SKC,0.00,WeatherDisplay:10.37,2013-10-05 18:39:00,
2013-10-05 13:45:00,53.7,35.0,29.87,East,101,11.7,11.7,49,0.00,,SKC,0.00,WeatherDisplay:10.37,2013-10-05 18:45:00,
2013-10-05 13:50:00,53.4,34.2,29.87,SE,131,11.7,11.7,48,0.00,,SKC,0.00,WeatherDisplay:10.37,2013-10-05 18:50:00,
2013-10-05 13:55:00,53.2,34.5,29.87,NNW,330,13.8,13.8,49,0.00,,SKC,0.00,WeatherDisplay:10.37,2013-10-05 18:55:00,
2013-10-05 14:00:00,52.8,34.2,29.87,WNW,295,16.1,16.1,49,0.00,,SKC,0.00,WeatherDisplay:10.37,2013-10-05 19:00:00,
2013-10-05 14:05:00,52.7,34.6,29.87,SSW,197,9.5,9.5,50,0.00,,SKC,0.00,WeatherDisplay:10.37,2013-10-05 19:05:00,
2013-10-05 14:10:00,53.0,33.8,29.87,SW,233,21.2,21.2,48,0.00,,SKC,0.00,WeatherDisplay:10.37,2013-10-05 19:10:00,
2013-10-05 14:15:00,52.9,33.7,29.86,NW,310,10.6,10.6,48,0.00,,SKC,0.00,WeatherDisplay:10.37,2013-10-05 19:15:00,
2013-10-05 14:20:00,52.9,33.7,29.87,WNW,297,13.8,13.8,48,0.00,,SKC,0.00,WeatherDisplay:10.37,2013-10-05 19:20:00,
2013-10-05 14:25:00,52.5,33.9,29.86,West,277,14.8,14.8,49,0.00,,SKC,0.00,WeatherDisplay:10.37,2013-10-05 19:25:00,
2013-10-05 14:30:00,52.3,33.2,29.86,WNW,301,11.7,11.7,48,0.00,,SKC,0.00,WeatherDisplay:10.37,2013-10-05 19:30:00,
2013-10-05 14:35:00,52.2,33.1,29.86,WSW,241,13.8,13.8,48,0.00,,SKC,0.00,WeatherDisplay:10.37,2013-10-05 19:35:00,
2013-10-05 14:40:00,52.1,33.5,29.86,WSW,248,15.0,15.0,49,0.00,,SKC,0.00,WeatherDisplay:10.37,2013-10-05 19:40:00,
2013-10-05 14:45:00,52.2,33.6,29.86,SSE,158,6.9,6.9,49,0.00,,SKC,0.00,WeatherDisplay:10.37,2013-10-05 19:45:00,
2013-10-05 14:50:00,52.3,33.7,29.86,SW,219,13.8,13.8,49,0.00,,SKC,0.00,WeatherDisplay:10.37,2013-10-05 19:50:00,
2013-10-05 14:55:00,52.3,33.7,29.85,WSW,257,11.7,11.7,49,0.00,,SKC,0.00,WeatherDisplay:10.37,2013-10-05 19:55:00,
2013-10-05 15:00:00,52.3,33.2,29.85,SW,216,12.7,12.7,48,0.00,,SKC,0.00,WeatherDisplay:10.37,2013-10-05 20:00:00,
2013-10-05 15:05:00,52.3,33.2,29.84,WSW,244,19.6,19.6,48,0.00,,SKC,0.00,WeatherDisplay:10.37,2013-10-05 20:05:00,
2013-10-05 15:10:00,52.5,33.9,29.84,WNW,291,11.7,11.7,49,0.00,,SKC,0.00,WeatherDisplay:10.37,2013-10-05 20:10:00,
2013-10-05 15:15:00,52.6,33.5,29.83,SSW,197,9.5,9.5,48,0.00,,SKC,0.00,WeatherDisplay:10.37,2013-10-05 20:15:00,
2013-10-05 15:20:00,52.5,33.9,29.84,ENE,64,13.8,13.8,49,0.00,,SKC,0.00,WeatherDisplay:10.37,2013-10-05 20:20:00,
2013-10-05 15:25:00,52.6,32.9,29.83,West,281,11.7,11.7,47,0.00,,SKC,0.00,WeatherDisplay:10.37,2013-10-05 20:25:00,
2013-10-05 15:30:00,52.6,33.5,29.83,NW,307,13.8,13.8,48,0.00,,SKC,0.00,WeatherDisplay:10.37,2013-10-05 20:30:00,
2013-10-05 15:35:00,52.8,33.6,29.83,NNW,339,12.7,12.7,48,0.00,,SKC,0.00,WeatherDisplay:10.37,2013-10-05 20:35:00,
2013-10-05 15:40:00,52.7,34.1,29.83,NW,304,5.8,5.8,49,0.00,,SKC,0.00,WeatherDisplay:10.37,2013-10-05 20:40:00,
2013-10-05 15:45:00,52.7,33.5,29.83,WNW,283,11.7,11.7,48,0.00,,SKC,0.00,WeatherDisplay:10.37,2013-10-05 20:45:00,
2013-10-05 15:50:00,52.5,33.9,29.83,NNW,338,10.6,10.6,49,0.00,,SKC,0.00,WeatherDisplay:10.37,2013-10-05 20:50:00,
2013-10-05 15:55:00,52.5,33.9,29.83,West,259,17.0,17.0,49,0.00,,SKC,0.00,WeatherDisplay:10.37,2013-10-05 20:55:00,
2013-10-05 16:00:00,52.4,33.8,29.83,NNE,13,9.2,9.2,49,0.00,,SKC,0.00,WeatherDisplay:10.37,2013-10-05 21:00:00,
2013-10-05 16:05:00,52.3,34.2,29.83,SW,226,7.4,7.4,50,0.00,,SKC,0.00,WeatherDisplay:10.37,2013-10-05 21:05:00,
2013-10-05 16:10:00,52.4,33.8,29.83,SSE,165,12.7,12.7,49,0.00,,SKC,0.00,WeatherDisplay:10.37,2013-10-05 21:10:00,
2013-10-05 16:15:00,52.3,33.7,29.83,West,262,12.7,12.7,49,0.00,,SKC,0.00,WeatherDisplay:10.37,2013-10-05 21:15:00,
2013-10-05 16:20:00,52.1,33.5,29.83,WSW,240,10.6,10.6,49,0.00,,SKC,0.00,WeatherDisplay:10.37,2013-10-05 21:20:00,
2013-10-05 16:25:00,52.0,33.9,29.83,NW,313,11.7,11.7,50,0.00,,SKC,0.00,WeatherDisplay:10.37,2013-10-05 21:25:00,
2013-10-05 16:30:00,51.8,33.7,29.83,WSW,245,18.4,18.4,50,0.00,,SKC,0.00,WeatherDisplay:10.37,2013-10-05 21:30:00,
2013-10-05 16:35:00,51.7,34.1,29.83,NW,312,12.7,12.7,51,0.00,,SKC,0.00,WeatherDisplay:10.37,2013-10-05 21:35:00,
2013-10-05 16:40:00,51.5,34.4,29.83,WSW,237,12.7,12.7,52,0.00,,SKC,0.00,WeatherDisplay:10.37,2013-10-05 21:40:00,
2013-10-05 16:45:00,51.2,34.6,29.84,SW,226,12.7,12.7,53,0.00,,SKC,0.00,WeatherDisplay:10.37,2013-10-05 21:45:00,
2013-10-05 16:50:00,50.8,34.7,29.83,SW,218,15.0,15.0,54,0.00,,SKC,0.00,WeatherDisplay:10.37,2013-10-05 21:50:00,
2013-10-05 16:55:00,50.6,35.0,29.83,NE,53,11.7,11.7,55,0.00,,SKC,0.00,WeatherDisplay:10.37,2013-10-05 21:55:00,
2013-10-05 17:00:00,50.5,35.4,29.83,East,101,11.7,11.7,56,0.00,,SKC,0.00,WeatherDisplay:10.37,2013-10-05 22:00:00,
2013-10-05 17:05:00,50.6,35.0,29.83,SW,218,16.1,16.1,55,0.00,,SKC,0.00,WeatherDisplay:10.37,2013-10-05 22:05:00,
2013-10-05 17:10:00,50.7,35.6,29.83,WNW,295,6.9,6.9,56,0.00,,SKC,0.00,WeatherDisplay:10.37,2013-10-05 22:10:00,
2013-10-05 17:15:00,50.9,36.2,29.83,WSW,258,7.4,7.4,57,0.00,,SKC,0.00,WeatherDisplay:10.37,2013-10-05 22:15:00,
2013-10-05 17:20:00,51.5,35.9,29.83,WSW,243,9.2,9.2,55,0.00,,SKC,0.00,WeatherDisplay:10.37,2013-10-05 22:20:00,
2013-10-05 17:25:00,51.9,35.3,29.83,WNW,297,12.7,12.7,53,0.00,,SKC,0.00,WeatherDisplay:10.37,2013-10-05 22:25:00,
2013-10-05 17:30:00,51.2,35.1,29.83,South,186,13.8,13.8,54,0.00,,SKC,0.00,WeatherDisplay:10.37,2013-10-05 22:30:00,
2013-10-05 17:35:00,50.7,35.1,29.83,SW,233,12.7,12.7,55,0.00,,SKC,0.00,WeatherDisplay:10.37,2013-10-05 22:35:00,
2013-10-05 17:40:00,50.8,34.7,29.83,SW,225,15.0,15.0,54,0.00,,SKC,0.00,WeatherDisplay:10.37,2013-10-05 22:40:00,
2013-10-05 17:45:00,50.5,34.9,29.83,NNW,340,17.0,17.0,55,0.00,,SKC,0.00,WeatherDisplay:10.37,2013-10-05 22:45:00,
2013-10-05 17:50:00,50.2,34.6,29.83,NW,316,9.5,9.5,55,0.00,,SKC,0.00,WeatherDisplay:10.37,2013-10-05 22:50:00,
2013-10-05 17:55:00,50.0,34.5,29.83,West,275,8.5,8.5,55,0.00,,SKC,0.00,WeatherDisplay:10.37,2013-10-05 22:55:00,
2013-10-05 18:00:00,49.7,34.6,29.83,WNW,285,10.4,10.4,56,0.00,,SKC,0.00,WeatherDisplay:10.37,2013-10-05 23:00:00,
2013-10-05 18:05:00,49.6,34.5,29.83,WNW,300,11.7,11.7,56,0.00,,SKC,0.00,WeatherDisplay:10.37,2013-10-05 23:05:00,
2013-10-05 18:10:00,49.5,34.4,29.83,SW,226,10.6,10.6,56,0.00,,SKC,0.00,WeatherDisplay:10.37,2013-10-05 23:10:00,
2013-10-05 18:15:00,49.5,34.4,29.83,WNW,302,9.5,9.5,56,0.00,,SKC,0.00,WeatherDisplay:10.37,2013-10-05 23:15:00,
2013-10-05 18:20:00,49.4,34.8,29.83,WSW,257,8.1,8.1,57,0.00,,SKC,0.00,WeatherDisplay:10.37,2013-10-05 23:20:00,
2013-10-05 18:25:00,49.3,34.7,29.83,North,4,11.7,11.7,57,0.00,,SKC,0.00,WeatherDisplay:10.37,2013-10-05 23:25:00,
2013-10-05 18:30:00,49.2,34.6,29.83,WSW,252,10.4,10.4,57,0.00,,SKC,0.00,WeatherDisplay:10.37,2013-10-05 23:30:00,
2013-10-05 18:35:00,49.2,34.6,29.83,West,271,15.0,15.0,57,0.00,,SKC,0.00,WeatherDisplay:10.37,2013-10-05 23:35:00,
2013-10-05 18:40:00,49.1,34.9,29.83,West,260,6.9,6.9,58,0.00,,SKC,0.00,WeatherDisplay:10.37,2013-10-05 23:40:00,
2013-10-05 18:45:00,49.0,34.9,29.83,SE,143,7.4,7.4,58,0.00,,SKC,0.00,WeatherDisplay:10.37,2013-10-05 23:45:00,
2013-10-05 18:50:00,48.9,34.3,29.83,NE,41,9.2,9.2,57,0.00,,SKC,0.00,WeatherDisplay:10.37,2013-10-05 23:50:00,
2013-10-05 18:55:00,48.8,34.2,29.83,NE,41,11.7,11.7,57,0.00,,SKC,0.00,WeatherDisplay:10.37,2013-10-05 23:55:00,
2013-10-05 19:00:00,48.6,34.0,29.84,NW,306,11.7,11.7,57,0.00,,SKC,0.00,WeatherDisplay:10.37,2013-10-06 00:00:00,
2013-10-05 19:05:00,48.3,34.2,29.84,SW,231,14.8,14.8,58,0.00,,SKC,0.00,WeatherDisplay:10.37,2013-10-06 00:05:00,
2013-10-05 19:10:00,48.0,34.3,29.84,WNW,299,9.5,9.5,59,0.00,,SKC,0.00,WeatherDisplay:10.37,2013-10-06 00:10:00,
2013-10-05 19:15:00,47.8,35.0,29.84,SSW,210,9.5,9.5,61,0.00,,SKC,0.00,WeatherDisplay:10.37,2013-10-06 00:15:00,
2013-10-05 19:20:00,47.6,34.8,29.84,SW,214,10.4,10.4,61,0.00,,SKC,0.00,WeatherDisplay:10.37,2013-10-06 00:20:00,
2013-10-05 19:25:00,47.5,34.7,29.84,WSW,238,7.4,7.4,61,0.00,,SKC,0.00,WeatherDisplay:10.37,2013-10-06 00:25:00,
2013-10-05 19:30:00,47.4,34.6,29.84,WNW,300,9.5,9.5,61,0.00,,SKC,0.00,WeatherDisplay:10.37,2013-10-06 00:30:00,
2013-10-05 19:35:00,47.4,34.6,29.84,SW,218,9.5,9.5,61,0.00,,SKC,0.00,WeatherDisplay:10.37,2013-10-06 00:35:00,
2013-10-05 19:40:00,47.4,34.6,29.83,WNW,298,6.9,6.9,61,0.00,,SKC,0.00,WeatherDisplay:10.37,2013-10-06 00:40:00,
2013-10-05 19:46:00,47.3,34.5,29.83,South,188,10.4,10.4,61,0.00,,SKC,0.00,WeatherDisplay:10.37,2013-10-06 00:46:00,
2013-10-05 19:51:00,47.3,34.5,29.83,SSW,194,11.5,11.5,61,0.00,,SKC,0.00,WeatherDisplay:10.37,2013-10-06 00:51:00,
2013-10-05 19:56:00,47.2,34.4,29.83,NW,309,12.7,12.7,61,0.00,,SKC,0.00,WeatherDisplay:10.37,2013-10-06 00:56:00,
2013-10-05 20:01:00,47.0,34.2,29.83,SSW,198,8.5,8.5,61,0.00,,SKC,0.00,WeatherDisplay:10.37,2013-10-06 01:01:00,
2013-10-05 20:06:00,47.0,34.6,29.83,SE,137,11.7,11.7,62,0.00,,SKC,0.00,WeatherDisplay:10.37,2013-10-06 01:06:00,
2013-10-05 20:11:00,47.0,34.6,29.83,South,184,8.5,8.5,62,0.00,,SKC,0.00,WeatherDisplay:10.37,2013-10-06 01:11:00,
2013-10-05 20:16:00,47.1,35.1,29.83,West,281,5.3,5.3,63,0.00,,SKC,0.00,WeatherDisplay:10.37,2013-10-06 01:16:00,
2013-10-05 20:21:00,47.1,34.7,29.83,West,268,13.8,13.8,62,0.00,,SKC,0.00,WeatherDisplay:10.37,2013-10-06 01:21:00,
2013-10-05 20:26:00,47.1,35.1,29.83,SW,221,9.5,9.5,63,0.00,,SKC,0.00,WeatherDisplay:10.37,2013-10-06 01:26:00,
2013-10-05 20:31:00,47.1,35.1,29.83,WSW,249,6.9,6.9,63,0.00,,SKC,0.00,WeatherDisplay:10.37,2013-10-06 01:31:00,
2013-10-05 20:36:00,47.1,35.5,29.83,North,5,6.9,6.9,64,0.00,,SKC,0.00,WeatherDisplay:10.37,2013-10-06 01:36:00,
2013-10-05 20:41:00,47.1,35.1,29.83,WNW,290,8.5,8.5,63,0.00,,SKC,0.00,WeatherDisplay:10.37,2013-10-06 01:41:00,
2013-10-05 20:46:00,47.1,34.7,29.83,WNW,294,12.7,12.7,62,0.00,,SKC,0.00,WeatherDisplay:10.37,2013-10-06 01:46:00,
2013-10-05 20:51:00,47.2,34.4,29.83,WNW,297,11.5,11.5,61,0.00,,SKC,0.00,WeatherDisplay:10.37,2013-10-06 01:51:00,
2013-10-05 20:56:00,47.2,34.8,29.83,West,278,9.5,9.5,62,0.00,,SKC,0.00,WeatherDisplay:10.37,2013-10-06 01:56:00,
2013-10-05 21:01:00,47.0,33.4,29.83,NW,308,22.3,22.3,59,0.00,,SKC,0.00,WeatherDisplay:10.37,2013-10-06 02:01:00,
2013-10-05 21:06:00,46.6,33.0,29.83,ENE,72,14.8,14.8,59,0.00,,SKC,0.00,WeatherDisplay:10.37,2013-10-06 02:06:00,
2013-10-05 21:11:00,46.2,33.5,29.84,WNW,283,15.0,15.0,61,0.00,,SKC,0.00,WeatherDisplay:10.37,2013-10-06 02:11:00,
2013-10-05 21:16:00,45.8,33.5,29.84,West,276,10.6,10.6,62,0.00,,SKC,0.00,WeatherDisplay:10.37,2013-10-06 02:16:00,
2013-10-05 21:21:00,45.5,33.6,29.84,WSW,256,12.7,12.7,63,0.00,,SKC,0.00,WeatherDisplay:10.37,2013-10-06 02:21:00,
2013-10-05 21:26:00,45.3,33.8,29.84,WSW,241,13.8,13.8,64,0.00,,SKC,0.00,WeatherDisplay:10.37,2013-10-06 02:26:00,
2013-10-05 21:31:00,45.2,34.1,29.84,WNW,285,13.8,13.8,65,0.00,,SKC,0.00,WeatherDisplay:10.37,2013-10-06 02:31:00,
2013-10-05 21:36:00,45.1,34.4,29.84,NW,323,11.7,11.7,66,0.00,,SKC,0.00,WeatherDisplay:10.37,2013-10-06 02:36:00,
2013-10-05 21:41:00,45.2,34.9,29.84,NNW,334,15.0,15.0,67,0.00,,SKC,0.00,WeatherDisplay:10.37,2013-10-06 02:41:00,
2013-10-05 21:46:00,45.2,34.9,29.83,WNW,290,9.5,9.5,67,0.00,,SKC,0.00,WeatherDisplay:10.37,2013-10-06 02:46:00,
2013-10-05 21:51:00,45.0,35.1,29.83,WNW,295,10.4,10.4,68,0.00,,SKC,0.00,WeatherDisplay:10.37,2013-10-06 02:51:00,
2013-10-05 21:56:00,44.7,35.1,29.83,SW,236,16.1,16.1,69,0.00,,SKC,0.00,WeatherDisplay:10.37,2013-10-06 02:56:00,
2013-10-05 22:01:00,44.5,35.0,29.83,East,82,5.3,5.3,69,0.00,,SKC,0.00,WeatherDisplay:10.37,2013-10-06 03:01:00,
2013-10-05 22:06:00,44.5,35.3,29.84,WNW,290,9.2,9.2,70,0.00,,SKC,0.00,WeatherDisplay:10.37,2013-10-06 03:06:00,
2013-10-05 22:11:00,44.6,35.4,29.83,WSW,249,12.7,12.7,70,0.00,,SKC,0.00,WeatherDisplay:10.37,2013-10-06 03:11:00,
2013-10-05 22:16:00,44.6,35.4,29.84,SSW,202,11.7,11.7,70,0.00,,SKC,0.00,WeatherDisplay:10.37,2013-10-06 03:16:00,
2013-10-05 22:21:00,44.6,35.4,29.84,SW,219,8.1,8.1,70,0.00,,SKC,0.00,WeatherDisplay:10.37,2013-10-06 03:21:00,
2013-10-05 22:26:00,44.7,35.9,29.84,West,260,8.1,8.1,71,0.00,,SKC,0.00,WeatherDisplay:10.37,2013-10-06 03:26:00,
2013-10-05 22:31:00,44.7,35.9,29.84,NW,326,9.5,9.5,71,0.00,,SKC,0.00,WeatherDisplay:10.37,2013-10-06 03:31:00,
2013-10-05 22:36:00,44.7,35.5,29.83,SW,236,6.9,6.9,70,0.00,,SKC,0.00,WeatherDisplay:10.37,2013-10-06 03:36:00,
2013-10-05 22:41:00,44.8,35.2,29.83,SSW,202,10.6,10.6,69,0.00,,SKC,0.00,WeatherDisplay:10.37,2013-10-06 03:41:00,
2013-10-05 22:46:00,44.8,35.6,29.83,NW,319,7.4,7.4,70,0.00,,SKC,0.00,WeatherDisplay:10.37,2013-10-06 03:46:00,
2013-10-05 22:51:00,44.8,35.6,29.83,NW,317,12.7,12.7,70,0.00,,SKC,0.00,WeatherDisplay:10.37,2013-10-06 03:51:00,
2013-10-05 22:56:00,44.9,35.3,29.83,West,278,17.3,17.3,69,0.00,,SKC,0.00,WeatherDisplay:10.37,2013-10-06 03:56:00,
2013-10-05 23:01:00,44.9,35.3,29.82,WNW,297,11.7,11.7,69,0.00,,SKC,0.00,WeatherDisplay:10.37,2013-10-06 04:01:00,
2013-10-05 23:02:00,44.8,35.2,29.82,South,188,10.6,10.6,69,0.00,,SKC,0.00,WeatherDisplay:10.37,2013-10-06 04:02:00,
2013-10-05 23:07:00,44.7,35.1,29.82,NNW,337,12.7,12.7,69,0.00,,SKC,0.00,WeatherDisplay:10.37,2013-10-06 04:07:00,
2013-10-05 23:12:00,44.6,35.4,29.83,WNW,287,7.4,7.4,70,0.00,,SKC,0.00,WeatherDisplay:10.37,2013-10-06 04:12:00,
2013-10-05 23:17:00,44.4,35.2,29.82,West,280,18.4,18.4,70,0.00,,SKC,0.00,WeatherDisplay:10.37,2013-10-06 04:17:00,
2013-10-05 23:22:00,44.3,35.5,29.82,NW,307,9.5,9.5,71,0.00,,SKC,0.00,WeatherDisplay:10.37,2013-10-06 04:22:00,
2013-10-05 23:27:00,44.3,35.5,29.82,WSW,237,16.1,16.1,71,0.00,,SKC,0.00,WeatherDisplay:10.37,2013-10-06 04:27:00,
2013-10-05 23:32:00,44.3,35.8,29.82,SW,230,8.5,8.5,72,0.00,,SKC,0.00,WeatherDisplay:10.37,2013-10-06 04:32:00,
2013-10-05 23:37:00,44.1,36.0,29.82,NW,307,9.5,9.5,73,0.00,,SKC,0.00,WeatherDisplay:10.37,2013-10-06 04:37:00,
2013-10-05 23:42:00,44.0,35.9,29.82,NW,324,11.7,11.7,73,0.00,,SKC,0.00,WeatherDisplay:10.37,2013-10-06 04:42:00,
2013-10-05 23:47:00,44.0,35.9,29.81,WNW,300,12.7,12.7,73,0.00,,SKC,0.00,WeatherDisplay:10.37,2013-10-06 04:47:00,
2013-10-05 23:52:00,44.0,36.2,29.81,SE,136,15.9,15.9,74,0.00,,SKC,0.00,WeatherDisplay:10.37,2013-10-06 04:52:00,
2013-10-05 23:57:00,43.9,36.1,29.81,WSW,250,15.9,15.9,74,0.00,,SKC,0.00,WeatherDisplay:10.37,2013-10-06 04:57:00,